Weather in Novoperunovo

Russia / Altai Krai     53°52′34″N   83°30′07″E
temp.,
°C
wind,
m/s
gust,
m/s
humid.,
%
clouds,
%
prec.,
mm/h
press.,
hPa
HPBL,
m
28 june, tue
tue2801:00+13w613947 60.9 1000614
04:00+11wsw6129511 0.0 1003454
07:00+11wsw5119534 0.0 1006455
10:00+16wsw687263 0.0 10081165
13:00+17wsw5771100 0.2 10081389
16:00+17w5669100 0.1 10091109
19:00+17wsw347031 0.1 1009925
22:00+13se128060 0.0 100810
29 june, wed
wed2901:00+12se3582100 0.0 100780
04:00+11se389014 0.0 1006155
07:00+13se310860 0.0 1005242
10:00+20sse58670 0.0 1002508
13:00+24se71055100 0.0 9991294
16:00+26s6105571 0.0 9961637
19:00+23ssw101571100 0.8 9941044
22:00+18s51391100 4.5 993387
30 june, thu
thu3001:00+12w31093100 4.7 997426
04:00+9wsw499817 0.0 999311
07:00+9wsw49921 0.0 1002428
10:00+14wsw58595 0.0 10031393
13:00+17sw795183 0.0 10031997
16:00+18wsw695258 0.0 10031892
19:00+16w466319 0.0 10041261
22:00+10nnw34790 0.0 100551
1 july, fri
fri101:00+8nw22819 0.0 100618
04:00+7nw22890 0.0 100615
07:00+9wnw23800 0.0 1007114
10:00+14wnw24610 0.0 1007826
13:00+18wnw34534 0.0 10061620
16:00+20nw244874 0.0 10051835
19:00+18e1267100 0.0 100599
22:00+15sse2266100 0.0 100616
2 july, sat
sat201:00+14sw236778 0.0 100637
04:00+13wsw3564100 0.0 1006110
07:00+13wsw2672100 0.0 1006153
10:00+17wsw356015 0.0 1005702
13:00+21wsw4744100 0.0 10042527
16:00+20wnw254952 0.0 10031395
19:00+20ene226139 0.0 1001126
22:00+14ene337699 0.0 100023